Find Starlink 11310

NORAD ID: 61212 Int'l Des: 2024-171 Owner: SPXS Country: US Constellation: starlink operational
LEOCIRCULAR

当前视图

正在加载3D地球...

About Starlink 11310

Starlink 11310 (NORAD 61212) is a starlink constellation satellite (v2 mini d2c) launched Sep 20, 2024 by SPXS of US. It operates in LEO, CIRCULAR orbit with a mass of 960.00 kg.

关于 Starlink 11310

正在加载描述...

即将过境

Passes for default location (London). Set your location on the main map for personalized predictions.

高度历史

Loading altitude history...

两行轨道根数

1 61212U 24171N 26169.91289426 -.00001171 00000-0 -48078-5 0 9996
2 61212 53.1605 37.5129 0001534 90.7900 269.3293 15.69700842100297
Epoch: Jun 18, 2026 • Age: 34 hours

当前状态

高度 361.9 km
速度 7.69 km/s
星下点 -6.24°S, 5°E
发射日期 Sep 20, 2024
运行时间 1.7 years
类型 internet

技术详情

分类 Payload
质量 960.00 kg
干质量 910.00 kg
总质量 960.00 kg
长度 0.30 m
直径 4.10 m
跨度 29.00 m
形状 Box + pan
制造商 SPXS
平台类型 Starlink V2MD
阶段状态 In Orbit
所有者/国家 SPXS/US

Most Searched